COSMOS 1823 DEB, 39821

Orbit data source: Space-Track

COSMOS 1823 DEB, 39821 is space debris in LEO originally from a launch on Fri, 20 Feb 1987 UTC launched from the Plesetsk Missile And Space Complex (PKMTR). Debris objects in space refer to the collection of defunct objects orbiting the Earth. Examples of debris include non-operational satellites, rocket bodies, and fragments generated from explosions, collisions, or faulty payload assembly.

Loading next visibility...
Identifier
39821, 1987-020EV
Orbit
LEO
Country
Flag of CISCIS
Related business
Manufacturer
Unknown
Mission
Spacecraft
Bus & Motor
Unknown
Mass
Unknown
Launch date (UTC)
1987-02-20 (39 years ago)
Launch vehicle
Unknown
Launch site
Plesetsk Missile And Space Complex (PKMTR)
Object type
Payload
Rocket body
Debris
Shape & HBR
Unknown shape, 0.1 m
Radar Cross Section
Small (<0.1 m²)

Expand to show TLE details & history
Last TLE update: 4 days ago

TLE from 4 days ago
0 COSMOS 1823 DEB
1 39821U 87020EV  26170.17223213  .00000145  00000-0  83332-3 0  9999
2 39821  73.2336 131.4222 0096205  48.7195 312.2097 12.68734233557639
Epoch: 2026-06-19T04:08Z
TLE epoch observation values (Epoch: 2026-06-19T04:08:00.856Z)
Latitude
0.00004°
Longitude
162.01362°
Altitude
1,339.662 km
Speed
7.211 km/s
True Right ascension
08h 45m 41s
True Declination
0° 00' 00"
Sunlit
Object was in daylight at epoch
Visualization orbit readout
Latitude
Unknown
Longitude
Unknown
Altitude
Unknown
Speed
Unknown
Apparent Right ascension
Unknown
Apparent Declination
Unknown
Sunlit
N/A
Visualization observer readout
Local Sidereal Time
06:36:54
Azimuth
Unknown
Elevation
Unknown
Doppler factor
Unknown
Orbital elements
Apogee altitude
1,459.662 km
Perigee altitude
1,310.292 km
Semi-major axis
7,763.114 km
Eccentricity
0.00962
Inclination
73.2336°
RAAN
131.4222°
Arg. of periapsis
48.7195°
True anomaly
311.38652°
Mean anomaly
312.2097°
Eccentric anomaly
311.79878°
Mean motion
3.17314 °/min
Orbital period
113.45 mins
BSTAR
0.00083332
Loading maneuver chart data...
Computing Atmospheric mass density...

Documentation

Showing up to 5 results
|